�������l�o���
Date,Time,MP-1(��Sv/h),MP-2(��Sv/h),MP-3(��Sv/h),MP-4(��Sv/h),MP-5(��Sv/h),MP-6(��Sv/h),MP-7(��Sv/h),MP-8(��Sv/h),����,����(m/s),���J
2020/03/04,00:00,0.680,0.976,0.657,1.199,0.858,0.393,0.690,0.659,��,1.1,��
2020/03/04,00:10,0.682,0.977,0.658,1.196,0.860,0.393,0.690,0.657,��쐼,2.6,��
2020/03/04,00:20,0.682,0.977,0.656,1.199,0.860,0.394,0.690,0.657,��,3.0,��
2020/03/04,00:30,0.681,0.977,0.656,1.198,0.860,0.394,0.691,0.658,��,2.3,��
2020/03/04,00:40,0.681,0.976,0.658,1.197,0.859,0.393,0.691,0.657,��,2.3,��
2020/03/04,00:50,0.682,0.977,0.655,1.200,0.861,0.393,0.690,0.657,��,2.3,��
2020/03/04,01:00,0.682,0.976,0.659,1.198,0.860,0.394,0.691,0.658,��,2.0,��
2020/03/04,01:10,0.681,0.976,0.658,1.199,0.860,0.395,0.691,0.656,��,2.2,��
2020/03/04,01:20,0.680,0.975,0.656,1.197,0.860,0.394,0.690,0.657,��,1.7,��
2020/03/04,01:30,0.681,0.973,0.658,1.198,0.861,0.394,0.690,0.659,��쓌,1.4,��
2020/03/04,01:40,0.682,0.978,0.658,1.198,0.858,0.393,0.690,0.656,��쓌,1.4,��
2020/03/04,01:50,0.681,0.980,0.658,1.197,0.859,0.395,0.691,0.657,��,1.7,��
2020/03/04,02:00,0.682,0.976,0.658,1.198,0.859,0.394,0.691,0.657,��,1.2,��
2020/03/04,02:10,0.682,0.975,0.657,1.200,0.860,0.393,0.690,0.658,��쓌,1.2,��
2020/03/04,02:20,0.680,0.976,0.657,1.197,0.859,0.395,0.689,0.660,��,0.9,��
2020/03/04,02:30,0.682,0.977,0.661,1.198,0.859,0.394,0.690,0.658,��,0.8,��
2020/03/04,02:40,0.682,0.978,0.658,1.198,0.860,0.395,0.691,0.658,��,1.4,��
2020/03/04,02:50,0.683,0.976,0.657,1.199,0.861,0.394,0.691,0.659,��,1.2,��
2020/03/04,03:00,0.682,0.977,0.658,1.199,0.859,0.395,0.689,0.658,��,1.5,��
2020/03/04,03:10,0.681,0.978,0.658,1.199,0.860,0.396,0.692,0.659,��,1.2,��
2020/03/04,03:20,0.682,0.978,0.660,1.197,0.860,0.394,0.691,0.657,��쓌,1.1,��
2020/03/04,03:30,0.681,0.978,0.657,1.200,0.862,0.395,0.692,0.657,-,CALM,��
2020/03/04,03:40,0.683,0.977,0.658,1.198,0.861,0.395,0.690,0.659,-,CALM,��
2020/03/04,03:50,0.684,0.975,0.661,1.198,0.861,0.395,0.691,0.658,��쓌,0.6,��
2020/03/04,04:00,0.682,0.978,0.658,1.198,0.861,0.394,0.691,0.658,�쓌,0.9,��
2020/03/04,04:10,0.683,0.976,0.657,1.199,0.861,0.394,0.691,0.658,-,CALM,��
2020/03/04,04:20,0.680,0.977,0.658,1.201,0.860,0.394,0.692,0.660,���쓌,1.2,��
2020/03/04,04:30,0.681,0.977,0.658,1.198,0.862,0.395,0.690,0.658,��쓌,1.1,��
2020/03/04,04:40,0.683,0.978,0.658,1.200,0.860,0.395,0.691,0.659,��쓌,1.1,��
2020/03/04,04:50,0.682,0.974,0.657,1.200,0.858,0.395,0.691,0.658,���쓌,0.6,��
2020/03/04,05:00,0.681,0.976,0.658,1.199,0.862,0.395,0.689,0.658,-,CALM,��
2020/03/04,05:10,0.682,0.975,0.658,1.199,0.861,0.395,0.691,0.659,�쓌,0.9,��
2020/03/04,05:20,0.684,0.976,0.658,1.198,0.861,0.396,0.692,0.659,�쓌,1.1,��
2020/03/04,05:30,0.682,0.976,0.660,1.201,0.860,0.395,0.692,0.658,��,0.6,��
2020/03/04,05:40,0.681,0.978,0.658,1.200,0.862,0.394,0.692,0.659,��쓌,0.9,��
2020/03/04,05:50,0.682,0.977,0.659,1.198,0.860,0.396,0.692,0.658,-,CALM,��
2020/03/04,06:00,0.682,0.977,0.658,1.201,0.859,0.395,0.693,0.659,��쓌,0.8,��
2020/03/04,06:10,0.681,0.979,0.659,1.201,0.859,0.394,0.691,0.659,��쐼,0.9,��
2020/03/04,06:20,0.683,0.977,0.657,1.199,0.859,0.395,0.692,0.659,��쐼,0.6,��
2020/03/04,06:30,0.682,0.975,0.657,1.201,0.862,0.393,0.691,0.659,��,0.8,��
2020/03/04,06:40,0.682,0.974,0.659,1.200,0.861,0.394,0.691,0.659,��,1.1,��
2020/03/04,06:50,0.682,0.977,0.658,1.199,0.859,0.395,0.691,0.659,��쐼,1.2,��
2020/03/04,07:00,0.682,0.977,0.657,1.199,0.862,0.394,0.691,0.658,��,1.5,��
2020/03/04,07:10,0.682,0.977,0.659,1.198,0.861,0.397,0.693,0.657,��,1.5,��
2020/03/04,07:20,0.684,0.976,0.656,1.200,0.861,0.394,0.691,0.658,��,1.7,��
2020/03/04,07:30,0.682,0.979,0.658,1.200,0.862,0.395,0.692,0.659,��쐼,2.6,��
2020/03/04,07:40,0.684,0.975,0.657,1.198,0.861,0.395,0.691,0.659,��쐼,2.0,��
2020/03/04,07:50,0.682,0.976,0.658,1.199,0.860,0.396,0.690,0.658,��,2.2,��
2020/03/04,08:00,0.683,0.976,0.659,1.201,0.861,0.395,0.692,0.658,��,2.0,��
2020/03/04,08:10,0.683,0.976,0.658,1.199,0.861,0.396,0.691,0.659,��,2.0,��
2020/03/04,08:20,0.682,0.977,0.656,1.199,0.860,0.395,0.693,0.660,��,2.0,�L
2020/03/04,08:30,0.683,0.977,0.658,1.198,0.861,0.395,0.691,0.657,��,2.3,��
2020/03/04,08:40,0.683,0.973,0.658,1.201,0.862,0.394,0.690,0.659,��쓌,2.3,��
2020/03/04,08:50,0.682,0.974,0.659,1.201,0.862,0.394,0.693,0.659,��쓌,2.9,�L
2020/03/04,09:00,0.684,0.975,0.657,1.199,0.862,0.395,0.694,0.660,��쓌,3.3,�L
2020/03/04,09:10,0.683,0.973,0.656,1.200,0.862,0.396,0.692,0.657,�쓌,3.2,��
2020/03/04,09:20,0.685,0.973,0.657,1.199,0.862,0.396,0.693,0.658,�쓌,4.1,��
2020/03/04,09:30,0.685,0.971,0.658,1.200,0.861,0.395,0.691,0.659,�쓌,4.4,�L
2020/03/04,09:40,0.683,0.972,0.657,1.200,0.861,0.395,0.692,0.660,�쓌,3.7,��
2020/03/04,09:50,0.683,0.973,0.658,1.202,0.860,0.394,0.691,0.660,�쓌,4.2,��
2020/03/04,10:00,0.684,0.973,0.660,1.199,0.863,0.394,0.690,0.659,�쓌,3.3,��
2020/03/04,10:10,0.684,0.971,0.656,1.200,0.864,0.394,0.691,0.658,���쓌,4.4,��
2020/03/04,10:20,0.683,0.973,0.659,1.199,0.861,0.395,0.690,0.659,�쓌,5.3,��
2020/03/04,10:30,0.683,0.972,0.658,1.199,0.863,0.396,0.690,0.657,�쓌,4.6,��
2020/03/04,10:40,0.683,0.974,0.658,1.200,0.862,0.395,0.692,0.660,�쓌,4.7,��
2020/03/04,10:50,0.684,0.974,0.659,1.200,0.863,0.395,0.690,0.660,�쓌,4.1,��
2020/03/04,11:00,0.684,0.974,0.659,1.199,0.860,0.396,0.692,0.660,���쓌,4.1,��
2020/03/04,11:10,0.685,0.972,0.660,1.200,0.863,0.396,0.690,0.658,��쓌,4.4,��
2020/03/04,11:20,0.684,0.976,0.659,1.200,0.862,0.395,0.692,0.659,��쓌,5.1,��
2020/03/04,11:30,0.684,0.978,0.658,1.201,0.863,0.395,0.690,0.661,��쓌,4.3,��
2020/03/04,11:40,0.687,0.978,0.657,1.199,0.862,0.395,0.691,0.660,��쓌,4.8,��
2020/03/04,11:50,0.683,0.978,0.659,1.200,0.862,0.395,0.691,0.659,�쓌,4.8,��
2020/03/04,12:00,0.684,0.978,0.658,1.204,0.862,0.396,0.690,0.661,�쓌,4.8,��
2020/03/04,12:10,0.687,0.983,0.659,1.203,0.864,0.396,0.692,0.658,�쓌,3.8,��
2020/03/04,12:20,0.683,0.978,0.660,1.199,0.863,0.395,0.690,0.661,�쓌,3.6,��
2020/03/04,12:30,0.685,0.980,0.659,1.200,0.860,0.395,0.690,0.660,�쓌,3.3,��
2020/03/04,12:40,0.686,0.979,0.660,1.201,0.863,0.397,0.691,0.660,�쓌,2.6,��
2020/03/04,12:50,0.685,0.980,0.658,1.200,0.861,0.396,0.693,0.660,���쓌,2.0,��
2020/03/04,13:00,0.685,0.978,0.660,1.201,0.863,0.396,0.691,0.660,�쓌,1.7,�L
2020/03/04,13:10,0.684,0.981,0.661,1.200,0.864,0.397,0.692,0.660,�쓌,1.5,�L
2020/03/04,13:20,0.685,0.982,0.659,1.201,0.863,0.397,0.691,0.661,���쓌,0.6,�L
2020/03/04,13:30,0.688,0.977,0.658,1.201,0.864,0.396,0.692,0.659,���k��,1.5,�L
2020/03/04,13:40,0.683,0.976,0.658,1.199,0.859,0.397,0.690,0.657,���쓌,6.6,�L
2020/03/04,13:50,0.679,0.966,0.655,1.194,0.854,0.398,0.688,0.655,-,CALM,�L
2020/03/04,14:00,0.676,0.960,0.650,1.186,0.847,0.395,0.685,0.654,-,CALM,�L
2020/03/04,14:10,0.675,0.955,0.651,1.185,0.845,0.397,0.685,0.654,���k��,2.0,�L
2020/03/04,14:20,0.675,0.959,0.652,1.186,0.847,0.397,0.683,0.655,�k�k��,1.5,�L
2020/03/04,14:30,0.675,0.959,0.651,1.185,0.847,0.396,0.685,0.653,�k�k��,1.4,�L
2020/03/04,14:40,0.674,0.959,0.651,1.183,0.846,0.396,0.686,0.655,�k,2.0,�L
2020/03/04,14:50,0.674,0.957,0.650,1.182,0.846,0.396,0.685,0.655,-,CALM,�L
2020/03/04,15:00,0.672,0.954,0.650,1.181,0.841,0.396,0.683,0.652,-,CALM,�L
2020/03/04,15:10,0.669,0.950,0.647,1.174,0.836,0.396,0.682,0.653,�k��,17.1,�L
2020/03/04,15:20,0.668,0.945,0.644,1.169,0.835,0.395,0.680,0.651,-,CALM,�L
2020/03/04,15:30,0.669,0.942,0.643,1.165,0.832,0.394,0.678,0.648,�k�k��,5.0,�L
2020/03/04,15:40,0.669,0.946,0.648,1.167,0.834,0.394,0.681,0.650,�k��,3.4,�L
2020/03/04,15:50,0.670,0.947,0.647,1.165,0.833,0.395,0.684,0.649,��,1.7,�L
2020/03/04,16:00,0.671,0.942,0.646,1.166,0.832,0.394,0.678,0.650,��,2.6,�L
2020/03/04,16:10,0.668,0.945,0.646,1.161,0.833,0.395,0.680,0.649,�k�k��,2.3,�L
2020/03/04,16:20,0.668,0.944,0.646,1.162,0.832,0.395,0.678,0.650,���k��,3.4,�L
2020/03/04,16:30,0.668,0.946,0.644,1.161,0.830,0.395,0.679,0.650,�k��,4.5,�L
2020/03/04,16:40,0.668,0.946,0.644,1.161,0.833,0.392,0.680,0.649,�k�k��,5.3,�L
2020/03/04,16:50,0.670,0.947,0.645,1.163,0.830,0.393,0.680,0.650,�k��,4.3,�L
2020/03/04,17:00,0.668,0.945,0.644,1.160,0.828,0.394,0.678,0.650,�k��,5.1,�L
2020/03/04,17:10,0.668,0.944,0.643,1.161,0.831,0.393,0.680,0.649,�k��,5.0,�L
2020/03/04,17:20,0.667,0.942,0.644,1.162,0.833,0.394,0.680,0.650,�k��,6.2,�L
2020/03/04,17:30,0.665,0.943,0.644,1.159,0.829,0.394,0.680,0.650,�k��,5.0,�L
2020/03/04,17:40,0.667,0.944,0.644,1.159,0.828,0.393,0.679,0.648,�k�k��,5.9,�L
2020/03/04,17:50,0.666,0.945,0.643,1.159,0.828,0.393,0.680,0.649,�k�k��,5.6,�L
2020/03/04,18:00,0.667,0.944,0.645,1.160,0.829,0.394,0.678,0.649,�k�k��,6.5,�L
2020/03/04,18:10,0.667,0.942,0.645,1.159,0.831,0.393,0.681,0.648,�k��,6.7,�L
2020/03/04,18:20,0.668,0.944,0.645,1.160,0.830,0.395,0.679,0.648,�k��,7.0,�L
2020/03/04,18:30,0.668,0.944,0.646,1.160,0.830,0.395,0.680,0.648,�k�k��,5.8,�L
2020/03/04,18:40,0.668,0.943,0.644,1.160,0.830,0.394,0.682,0.648,�k��,6.5,�L
2020/03/04,18:50,0.667,0.941,0.642,1.158,0.828,0.393,0.681,0.650,�k�k��,8.2,�L
2020/03/04,19:00,0.668,0.943,0.644,1.159,0.829,0.393,0.681,0.649,�k��,6.9,��
2020/03/04,19:10,0.669,0.946,0.642,1.160,0.829,0.392,0.680,0.650,�k��,7.2,��
2020/03/04,19:20,0.669,0.946,0.643,1.164,0.829,0.393,0.681,0.648,�k�k��,7.5,��
2020/03/04,19:30,0.669,0.945,0.645,1.164,0.831,0.392,0.681,0.650,�k��,7.5,�L
2020/03/04,19:40,0.668,0.946,0.644,1.161,0.833,0.392,0.682,0.649,�k�k��,7.5,�L
2020/03/04,19:50,0.671,0.945,0.643,1.166,0.829,0.392,0.683,0.649,�k��,7.9,��
2020/03/04,20:00,0.667,0.947,0.645,1.165,0.830,0.392,0.682,0.650,�k�k��,7.5,��
2020/03/04,20:10,0.668,0.949,0.644,1.166,0.832,0.391,0.682,0.651,�k��,7.2,��
2020/03/04,20:20,0.670,0.948,0.644,1.167,0.831,0.391,0.684,0.649,�k��,7.0,��
2020/03/04,20:30,0.669,0.948,0.644,1.166,0.831,0.394,0.683,0.651,�k��,7.5,��
2020/03/04,20:40,0.670,0.949,0.645,1.166,0.831,0.391,0.683,0.649,�k��,6.6,��
2020/03/04,20:50,0.670,0.951,0.643,1.168,0.831,0.390,0.686,0.652,�k��,6.4,�L
2020/03/04,21:00,0.669,0.952,0.644,1.168,0.832,0.391,0.683,0.649,�k��,6.3,��
2020/03/04,21:10,0.670,0.950,0.645,1.169,0.833,0.392,0.683,0.652,�k��,6.2,��
2020/03/04,21:20,0.671,0.951,0.646,1.168,0.835,0.393,0.684,0.653,�k�k��,6.0,��
2020/03/04,21:30,0.672,0.952,0.644,1.171,0.833,0.393,0.684,0.650,�k��,5.6,��
2020/03/04,21:40,0.670,0.950,0.646,1.168,0.834,0.393,0.684,0.651,�k��,5.2,��
2020/03/04,21:50,0.671,0.953,0.645,1.170,0.833,0.393,0.685,0.652,�k�k��,4.7,��
2020/03/04,22:00,0.673,0.952,0.646,1.172,0.835,0.391,0.684,0.651,�k�k��,4.6,��
2020/03/04,22:10,0.671,0.952,0.644,1.174,0.834,0.391,0.684,0.653,�k�k��,5.0,��
2020/03/04,22:20,0.673,0.953,0.646,1.172,0.834,0.393,0.683,0.652,�k�k��,4.2,��
2020/03/04,22:30,0.671,0.953,0.646,1.172,0.834,0.393,0.684,0.652,�k�k��,4.2,��
2020/03/04,22:40,0.673,0.953,0.648,1.173,0.836,0.392,0.683,0.653,�k,3.8,��
2020/03/04,22:50,0.673,0.953,0.647,1.174,0.836,0.393,0.685,0.652,�k,5.2,��
2020/03/04,23:00,0.673,0.954,0.646,1.175,0.835,0.391,0.684,0.650,�k,5.0,��
2020/03/04,23:10,0.673,0.954,0.647,1.174,0.838,0.393,0.683,0.652,�k,4.1,��
2020/03/04,23:20,0.671,0.952,0.646,1.173,0.838,0.393,0.685,0.652,�k,3.8,��
2020/03/04,23:30,0.671,0.954,0.647,1.175,0.838,0.393,0.684,0.650,�k�k��,4.2,��
2020/03/04,23:40,0.674,0.954,0.646,1.175,0.836,0.392,0.684,0.654,�k�k��,3.6,��
2020/03/04,23:50,0.672,0.953,0.647,1.175,0.837,0.391,0.684,0.653,�k�k��,3.5,�L
